E22FEY-1 Weather Reports


time (UTC)temp
C
wind
direction
speed
KPH
gust
KPH
rain 1hr
cm
rain 24hr
cm
rain mn
cm
humidity
%
barometer
mb
20260504171008 26 0 0.0 0.0 0.00 0.00 0.00 79 1011.0
20260504150654 31 0 0.0 0.0 0.00 0.00 0.00 61 1010.0
20260504140517 31 0 0.0 0.0 0.00 0.00 0.00 62 1009.0
20260504130340 31 0 0.0 0.0 0.00 0.00 0.00 64 1009.0
20260504120202 31 0 0.0 0.0 0.00 0.00 0.00 61 1007.0
20260504081059 39 0 0.0 0.0 0.00 0.00 0.00 39 1006.0
20260504050608 38 0 0.0 0.0 0.00 0.00 0.00 44 1009.0
20260504045043 38 0 0.0 0.0 0.00 0.00 0.00 43 1009.0
20260504043519 38 0 0.0 0.0 0.00 0.00 0.00 45 1009.0
20260504041955 39 0 0.0 0.0 0.00 0.00 0.00 42 1009.0
20260504040431 39 0 0.0 0.0 0.00 0.00 0.00 41 1010.0
20260504034907 39 0 0.0 0.0 0.00 0.00 0.00 42 1010.0
20260504033342 38 0 0.0 0.0 0.00 0.00 0.00 44 1010.0
20260504031818 38 0 0.0 0.0 0.00 0.00 0.00 44 1010.0
20260504030253 40 0 0.0 0.0 0.00 0.00 0.00 41 1010.0
20260504024729 40 0 0.0 0.0 0.00 0.00 0.00 40 1010.0
20260504023205 40 0 0.0 0.0 0.00 0.00 0.00 40 1010.0
20260504021641 40 0 0.0 0.0 0.00 0.00 0.00 40 1010.0
20260504020117 40 0 0.0 0.0 0.00 0.00 0.00 41 1010.0
20260504014553 40 0 0.0 0.0 0.00 0.00 0.00 42 1010.0
20260504013029 41 0 0.0 0.0 0.00 0.00 0.00 40 1010.0
20260504011504 41 0 0.0 0.0 0.00 0.00 0.00 40 1010.0
20260504005940 41 0 0.0 0.0 0.00 0.00 0.00 40 1010.0
20260504004416 42 0 0.0 0.0 0.00 0.00 0.00 38 1010.0
20260504002852 42 0 0.0 0.0 0.00 0.00 0.00 40 1010.0
20260504001328 39 0 0.0 0.0 0.00 0.00 0.00 45 1009.0
20260503235804 36 0 0.0 0.0 0.00 0.00 0.00 53 1009.0
20260503234239 33 0 0.0 0.0 0.00 0.00 0.00 62 1009.0
20260503232715 32 0 0.0 0.0 0.00 0.00 0.00 63 1009.0
20260503231151 32 0 0.0 0.0 0.00 0.00 0.00 64 1009.0
20260503225626 32 0 0.0 0.0 0.00 0.00 0.00 65 1009.0
20260503224102 32 0 0.0 0.0 0.00 0.00 0.00 64 1009.0
20260503222537 32 0 0.0 0.0 0.00 0.00 0.00 65 1008.0
20260503221013 32 0 0.0 0.0 0.00 0.00 0.00 66 1008.0
20260503215449 32 0 0.0 0.0 0.00 0.00 0.00 66 1008.0
20260503213924 32 0 0.0 0.0 0.00 0.00 0.00 64 1008.0
20260503212359 32 0 0.0 0.0 0.00 0.00 0.00 63 1008.0
20260503210835 32 0 0.0 0.0 0.00 0.00 0.00 64 1007.0
20260503205311 32 0 0.0 0.0 0.00 0.00 0.00 63 1008.0
20260503203747 32 0 0.0 0.0 0.00 0.00 0.00 63 1008.0
20260503202222 33 0 0.0 0.0 0.00 0.00 0.00 62 1008.0
20260503200658 32 0 0.0 0.0 0.00 0.00 0.00 63 1008.0
20260503195134 32 0 0.0 0.0 0.00 0.00 0.00 62 1008.0
20260503193609 32 0 0.0 0.0 0.00 0.00 0.00 63 1008.0
20260503192045 33 0 0.0 0.0 0.00 0.00 0.00 61 1008.0
20260503190520 33 0 0.0 0.0 0.00 0.00 0.00 60 1008.0
20260503184956 33 0 0.0 0.0 0.00 0.00 0.00 60 1008.0
20260503183431 32 0 0.0 0.0 0.00 0.00 0.00 61 1008.0
20260503181907 33 0 0.0 0.0 0.00 0.00 0.00 60 1008.0
20260503180343 33 0 0.0 0.0 0.00 0.00 0.00 60 1008.0
20260503174819 33 0 0.0 0.0 0.00 0.00 0.00 60 1008.0
20260503173255 33 0 0.0 0.0 0.00 0.00 0.00 60 1008.0
20260503171731 33 0 0.0 0.0 0.00 0.00 0.00 59 1009.0